Location: Ostrava
(49.8330°N, 18.2830°E)
Time: 18:06:09
(UTC+01:00)

Transit 2A - All Passes

Search period start: 17 January 2017 00:00
Search period end: 27 January 2017 00:00
Orbit: 600 x 960 km, 66.7° (Epoch: 17 January)

Date Brightness Start Highest point End Pass type
(mag) Time Alt. Az. Time Alt. Az. Time Alt. Az.
17 Jan - 01:19:09 10° NW 01:21:46 14° NNW 01:24:16 10° NNE night (unlit)
17 Jan - 03:06:01 10° N 03:07:09 11° N 03:08:14 10° NNE visible
17 Jan - 04:48:30 10° NNW 04:52:09 22° NNE 04:55:38 10° E visible
17 Jan - 06:31:20 10° NW 06:35:52 77° SW 06:40:11 10° SSE visible
17 Jan - 21:15:00 10° S 21:20:01 34° ESE 21:24:38 10° NE night (unlit)
17 Jan - 22:57:47 10° WSW 23:03:07 49° NW 23:07:58 10° NNE night (unlit)
18 Jan - 00:44:15 10° WNW 00:47:24 16° NNW 00:50:25 10° NNE night (unlit)
18 Jan - 02:31:58 10° N 02:32:42 10° N 02:33:25 10° N visible
18 Jan - 04:14:39 10° NNW 04:17:53 18° NNE 04:20:59 10° ENE visible
18 Jan - 05:57:19 10° NW 06:01:52 75° NE 06:06:12 10° SE visible
18 Jan - 07:41:49 10° WNW 07:44:22 15° WSW 07:46:52 10° SW daylight
18 Jan - 20:41:41 10° SSE 20:46:09 25° ESE 20:50:19 10° ENE night (unlit)
18 Jan - 22:23:32 10° SW 22:29:03 65° NW 22:34:02 10° NNE night (unlit)
19 Jan - 00:09:25 10° WNW 00:13:06 19° NNW 00:16:33 10° NNE night (unlit)
19 Jan - 01:57:29 10° NNW 01:58:15 10° N 01:59:01 10° N night (unlit)
19 Jan - 03:40:49 10° NNW 03:43:33 15° NNE 03:46:13 10° ENE visible
19 Jan - 05:23:21 10° NNW 05:27:49 53° NE 05:32:04 10° SE visible
19 Jan - 07:07:09 10° WNW 07:10:36 22° WSW 07:13:57 10° SSW daylight
19 Jan - 20:08:43 10° SSE 20:12:20 18° ESE 20:15:46 10° ENE night (unlit)
19 Jan - 21:49:26 10° SW 21:55:01 87° NW 22:00:03 10° NE night (unlit)
19 Jan - 23:34:40 10° W 23:38:50 23° NW 23:42:42 10° NNE night (unlit)
20 Jan - 01:22:35 10° NNW 01:23:49 11° N 01:25:01 10° N night (unlit)
20 Jan - 03:06:58 10° N 03:09:11 13° NNE 03:11:22 10° NE visible
20 Jan - 04:49:25 10° NNW 04:53:43 39° NE 04:57:48 10° ESE visible
20 Jan - 06:32:48 10° NW 06:36:46 32° WSW 06:40:37 10° S visible
20 Jan - 19:36:23 10° SE 19:38:34 12° ESE 19:40:41 10° E night (unlit)
20 Jan - 21:15:29 10° SSW 21:21:01 70° ESE 21:26:03 10° NE night (unlit)
20 Jan - 23:00:01 10° W 23:04:36 28° NW 23:08:50 10° NNE night (unlit)
21 Jan - 00:47:37 10° NW 00:49:24 12° NNW 00:51:08 10° N night (unlit)
21 Jan - 02:33:09 10° N 02:34:49 12° NNE 02:36:25 10° NE visible
21 Jan - 04:15:32 10° NNW 04:19:33 29° NE 04:23:24 10° E visible
21 Jan - 05:58:36 10° NW 06:02:54 47° WSW 06:07:03 10° SSE visible
21 Jan - 20:41:42 10° SSW 20:47:04 50° ESE 20:51:57 10° NE night (unlit)
21 Jan - 22:25:30 10° WSW 22:30:26 35° NW 22:34:57 10° NNE night (unlit)
22 Jan - 00:12:38 10° NW 00:15:00 13° NNW 00:17:18 10° N night (unlit)
22 Jan - 01:59:19 10° N 02:00:23 11° N 02:01:26 10° NNE night (unlit)
22 Jan - 03:41:39 10° NNW 03:45:20 23° NE 03:48:53 10° E visible
22 Jan - 05:24:30 10° NW 05:28:58 70° WSW 05:33:16 10° SSE visible
22 Jan - 20:08:06 10° S 20:13:10 36° ESE 20:17:48 10° NE night (unlit)
22 Jan - 21:51:05 10° WSW 21:56:18 46° NW 22:01:03 10° NNE night (unlit)
22 Jan - 23:37:42 10° WNW 23:40:38 15° NNW 23:43:26 10° NNE night (unlit)
23 Jan - 01:25:29 10° N 01:25:57 10° N 01:26:25 10° N night (unlit)
23 Jan - 03:07:48 10° NNW 03:11:04 19° NNE 03:14:14 10° ENE visible
23 Jan - 04:50:29 10° NW 04:55:00 82° NE 04:59:19 10° SE visible
23 Jan - 06:35:13 10° WNW 06:37:25 14° WSW 06:39:36 10° SW visible
23 Jan - 19:34:44 10° SSE 19:39:17 26° ESE 19:43:30 10° ENE night (unlit)
23 Jan - 21:16:49 10° SW 21:22:13 61° NW 21:27:06 10° NNE night (unlit)
23 Jan - 23:02:51 10° WNW 23:06:19 18° NNW 23:09:36 10° NNE night (unlit)
24 Jan - 00:51:13 10° N 00:51:30 10° N 00:51:47 10° N night (unlit)
24 Jan - 02:33:57 10° NNW 02:36:46 16° NNE 02:39:29 10° ENE visible
24 Jan - 04:16:30 10° NNW 04:20:58 57° NE 04:25:13 10° SE visible
24 Jan - 06:00:26 10° WNW 06:03:40 20° WSW 06:06:51 10° SSW visible
24 Jan - 19:01:40 10° SSE 19:05:27 19° ESE 19:09:01 10° ENE visible
24 Jan - 20:42:41 10° SW 20:48:11 81° NW 20:53:09 10° NE visible
24 Jan - 22:28:04 10° W 22:32:03 21° NNW 22:35:45 10° NNE night (unlit)
25 Jan - 00:16:12 10° NNW 00:17:03 10° N 00:17:55 10° N night (unlit)
25 Jan - 02:00:08 10° N 02:02:25 13° NNE 02:04:38 10° NE night (unlit)
25 Jan - 03:42:34 10° NNW 03:46:51 41° NE 03:50:59 10° ESE visible
25 Jan - 05:26:01 10° NW 05:29:51 29° WSW 05:33:36 10° S visible
25 Jan - 18:29:09 10° SE 18:31:40 13° ESE 18:34:06 10° ENE visible
25 Jan - 20:08:41 10° SSW 20:14:11 75° ESE 20:19:09 10° NE visible
25 Jan - 21:53:24 10° W 21:57:48 26° NW 22:01:53 10° NNE night (unlit)
25 Jan - 23:41:09 10° NNW 23:42:38 11° NNW 23:44:06 10° N night (unlit)
26 Jan - 01:26:20 10° N 01:28:02 12° NNE 01:29:42 10° NE night (unlit)
26 Jan - 03:08:39 10° NNW 03:12:43 31° NE 03:16:36 10° ESE visible
26 Jan - 04:51:47 10° NW 04:55:59 43° WSW 05:00:05 10° S visible
26 Jan - 19:34:52 10° SSW 19:40:13 54° ESE 19:45:05 10° NE visible
26 Jan - 21:18:51 10° WSW 21:23:37 33° NW 21:28:00 10° NNE visible
26 Jan - 23:06:08 10° NW 23:08:14 12° NNW 23:10:17 10° N night (unlit)
